| time (UTC) | temp F | wind direction | speed knots | gust knots | rain 1hr in | rain 24hr in | rain mn in | humidity % | barometer mb |
| 20260901022322 | 84 | 141 | 2.6 | 7.0 | 0.00 | 0.00 | 0.00 | 73 | 1019.7 |
| 20260901021325 | 84 | 125 | 1.7 | 5.2 | 0.00 | 0.00 | 0.00 | 71 | 1019.6 |
| 20260901020318 | 84 | 158 | 2.6 | 3.5 | 0.00 | 0.00 | 0.00 | 71 | 1019.6 |
| 20260901015315 | 85 | 128 | 2.6 | 4.3 | 0.00 | 0.00 | 0.00 | 70 | 1019.6 |
| 20260901014315 | 85 | 148 | 1.7 | 4.3 | 0.00 | 0.00 | 0.00 | 71 | 1019.4 |
| 20260901013313 | 85 | 140 | 2.6 | 4.3 | 0.00 | 0.00 | 0.00 | 70 | 1019.4 |
| 20260901012309 | 85 | 147 | 0.9 | 2.6 | 0.00 | 0.00 | 0.00 | 70 | 1019.2 |
| 20260901011312 | 85 | 111 | 1.7 | 4.3 | 0.00 | 0.00 | 0.00 | 70 | 1019.1 |
| 20260901010327 | 85 | 78 | 0.9 | 3.5 | 0.00 | 0.00 | 0.00 | 69 | 1019.0 |
| 20260901005349 | 86 | 79 | 0.9 | 3.5 | 0.00 | 0.00 | 0.00 | 70 | 1018.9 |
| 20260901004331 | 86 | 70 | 0.9 | 2.6 | 0.00 | 0.00 | 0.00 | 70 | 1018.8 |
| 20260901003327 | 86 | 63 | 0.9 | 1.7 | 0.00 | 0.00 | 0.00 | 70 | 1018.8 |
| 20260901002349 | 86 | 149 | 1.7 | 3.5 | 0.00 | 0.00 | 0.00 | 70 | 1018.8 |
| 20260901001323 | 86 | 58 | 0.9 | 3.5 | 0.00 | 0.00 | 0.00 | 70 | 1018.7 |
| 20260901000321 | 87 | 146 | 2.6 | 3.5 | 0.00 | 0.00 | 0.00 | 69 | 1018.7 |
| 20260831235322 | 87 | 42 | 0.9 | 2.6 | 0.00 | 0.00 | 0.00 | 68 | 1018.6 |
| 20260831234319 | 88 | 69 | 0.9 | 2.6 | 0.00 | 0.00 | 0.00 | 67 | 1018.5 |
| 20260831233325 | 88 | 94 | 0.9 | 2.6 | 0.00 | 0.00 | 0.00 | 67 | 1018.6 |
| 20260831232322 | 89 | 127 | 1.7 | 3.5 | 0.00 | 0.00 | 0.00 | 68 | 1018.6 |
| 20260831231319 | 90 | 73 | 1.7 | 3.5 | 0.00 | 0.00 | 0.00 | 66 | 1018.6 |
| 20260831230320 | 90 | 85 | 1.7 | 5.2 | 0.00 | 0.00 | 0.00 | 64 | 1018.6 |
| 20260831225334 | 91 | 74 | 1.7 | 5.2 | 0.00 | 0.00 | 0.00 | 64 | 1018.4 |
| 20260831224314 | 92 | 90 | 1.7 | 5.2 | 0.00 | 0.00 | 0.00 | 63 | 1018.4 |
| 20260831223309 | 93 | 57 | 0.9 | 3.5 | 0.00 | 0.00 | 0.00 | 61 | 1018.4 |
| 20260831222329 | 93 | 49 | 1.7 | 3.5 | 0.00 | 0.00 | 0.00 | 61 | 1018.5 |
| 20260831221344 | 94 | 19 | 2.6 | 5.2 | 0.00 | 0.00 | 0.00 | 60 | 1018.5 |
| 20260831220325 | 95 | 46 | 2.6 | 5.2 | 0.00 | 0.00 | 0.00 | 59 | 1018.6 |
| 20260831215319 | 96 | 56 | 1.7 | 5.2 | 0.00 | 0.00 | 0.00 | 57 | 1018.7 |
| 20260831214316 | 98 | 182 | 1.7 | 2.6 | 0.00 | 0.00 | 0.00 | 56 | 1018.6 |
| 20260831213313 | 98 | 23 | 1.7 | 4.3 | 0.00 | 0.00 | 0.00 | 57 | 1018.6 |
| 20260831212337 | 97 | 44 | 2.6 | 4.3 | 0.00 | 0.00 | 0.00 | 56 | 1018.6 |
| 20260831211326 | 97 | 38 | 2.6 | 5.2 | 0.00 | 0.00 | 0.00 | 57 | 1018.7 |
| 20260831210327 | 97 | 63 | 1.7 | 6.1 | 0.00 | 0.00 | 0.00 | 56 | 1018.8 |
| 20260831205319 | 98 | 153 | 1.7 | 3.5 | 0.00 | 0.00 | 0.00 | 57 | 1018.7 |
| 20260831204312 | 98 | 336 | 1.7 | 4.3 | 0.00 | 0.00 | 0.00 | 55 | 1018.8 |
| 20260831203331 | 98 | 33 | 2.6 | 5.2 | 0.00 | 0.00 | 0.00 | 56 | 1019.0 |
| 20260831202330 | 98 | 16 | 2.6 | 4.3 | 0.00 | 0.00 | 0.00 | 55 | 1019.1 |
| 20260831201344 | 98 | 89 | 1.7 | 5.2 | 0.00 | 0.00 | 0.00 | 55 | 1019.2 |
| 20260831200343 | 98 | 63 | 1.7 | 6.1 | 0.00 | 0.00 | 0.00 | 57 | 1019.2 |
| 20260831195323 | 98 | 104 | 2.6 | 6.1 | 0.00 | 0.00 | 0.00 | 56 | 1019.3 |
| 20260831194315 | 98 | 104 | 2.6 | 6.1 | 0.00 | 0.00 | 0.00 | 59 | 1019.3 |
| 20260831193335 | 97 | 132 | 2.6 | 7.0 | 0.00 | 0.00 | 0.00 | 59 | 1019.4 |
| 20260831192328 | 97 | 167 | 2.6 | 7.0 | 0.00 | 0.00 | 0.00 | 58 | 1019.5 |
| 20260831191348 | 98 | 157 | 3.5 | 7.0 | 0.00 | 0.00 | 0.00 | 57 | 1019.6 |
| 20260831190316 | 97 | 58 | 4.3 | 7.0 | 0.00 | 0.00 | 0.00 | 61 | 1019.7 |
| 20260831185310 | 96 | 65 | 3.5 | 7.0 | 0.00 | 0.00 | 0.00 | 61 | 1019.8 |
| 20260831184310 | 96 | 88 | 2.6 | 6.1 | 0.00 | 0.00 | 0.00 | 60 | 1019.8 |
| 20260831183324 | 96 | 97 | 2.6 | 8.7 | 0.00 | 0.00 | 0.00 | 61 | 1019.9 |
| 20260831182323 | 96 | 163 | 2.6 | 7.0 | 0.00 | 0.00 | 0.00 | 61 | 1020.1 |
| 20260831181314 | 95 | 113 | 2.6 | 6.1 | 0.00 | 0.00 | 0.00 | 63 | 1020.1 |
| 20260831180333 | 96 | 301 | 2.6 | 5.2 | 0.00 | 0.00 | 0.00 | 62 | 1020.4 |
| 20260831175309 | 96 | 146 | 3.5 | 4.3 | 0.00 | 0.00 | 0.00 | 62 | 1020.4 |
| 20260831174321 | 96 | 173 | 1.7 | 4.3 | 0.00 | 0.00 | 0.00 | 63 | 1020.4 |
| 20260831173318 | 95 | 355 | 1.7 | 4.3 | 0.00 | 0.00 | 0.00 | 67 | 1020.5 |
| 20260831172335 | 95 | 327 | 2.6 | 5.2 | 0.00 | 0.00 | 0.00 | 63 | 1020.5 |
| 20260831171326 | 94 | 42 | 1.7 | 4.3 | 0.00 | 0.00 | 0.00 | 63 | 1020.6 |
| 20260831170345 | 94 | 328 | 0.9 | 5.2 | 0.00 | 0.00 | 0.00 | 66 | 1020.7 |
| 20260831165316 | 93 | 46 | 4.3 | 6.1 | 0.00 | 0.00 | 0.00 | 65 | 1020.8 |
| 20260831164315 | 92 | 278 | 1.7 | 3.5 | 0.00 | 0.00 | 0.00 | 67 | 1020.7 |
| 20260831163315 | 93 | 281 | 2.6 | 5.2 | 0.00 | 0.00 | 0.00 | 67 | 1020.8 |
| 20260831162326 | 93 | 66 | 1.7 | 4.3 | 0.00 | 0.00 | 0.00 | 66 | 1021.0 |
| 20260831161324 | 92 | 9 | 3.5 | 5.2 | 0.00 | 0.00 | 0.00 | 66 | 1021.1 |
| 20260831160314 | 91 | 328 | 2.6 | 4.3 | 0.00 | 0.00 | 0.00 | 68 | 1021.2 |
| 20260831155330 | 90 | 258 | 0.9 | 4.3 | 0.00 | 0.00 | 0.00 | 68 | 1021.2 |
| 20260831154324 | 90 | 334 | 2.6 | 3.5 | 0.00 | 0.00 | 0.00 | 70 | 1021.4 |
| 20260831153319 | 89 | 334 | 0.9 | 4.3 | 0.00 | 0.00 | 0.00 | 70 | 1021.4 |
| 20260831152342 | 90 | 283 | 1.7 | 5.2 | 0.00 | 0.00 | 0.00 | 69 | 1021.3 |
| 20260831151318 | 89 | 345 | 1.7 | 5.2 | 0.00 | 0.00 | 0.00 | 72 | 1021.4 |
| 20260831150330 | 89 | 269 | 1.7 | 6.1 | 0.00 | 0.00 | 0.00 | 70 | 1021.5 |
| 20260831145326 | 88 | 360 | 1.7 | 3.5 | 0.00 | 0.00 | 0.00 | 74 | 1021.3 |
| 20260831144314 | 88 | 95 | 1.7 | 3.5 | 0.00 | 0.00 | 0.00 | 74 | 1021.2 |
| 20260831142353 | 86 | 11 | 1.7 | 4.3 | 0.00 | 0.00 | 0.00 | 78 | 1021.1 |
| 20260831141319 | 86 | 318 | 1.7 | 4.3 | 0.00 | 0.00 | 0.00 | 79 | 1021.1 |
| 20260831140315 | 85 | 248 | 2.6 | 6.1 | 0.00 | 0.00 | 0.00 | 81 | 1021.0 |
| 20260831135324 | 84 | 244 | 1.7 | 5.2 | 0.00 | 0.00 | 0.00 | 82 | 1021.0 |
| 20260831134321 | 83 | 279 | 2.6 | 4.3 | 0.00 | 0.00 | 0.00 | 84 | 1021.0 |
| 20260831133309 | 82 | 338 | 2.6 | 4.3 | 0.00 | 0.00 | 0.00 | 86 | 1020.8 |
| 20260831132327 | 82 | 329 | 1.7 | 4.3 | 0.00 | 0.00 | 0.00 | 89 | 1020.9 |
| 20260831131317 | 81 | 347 | 1.7 | 6.1 | 0.00 | 0.00 | 0.00 | 90 | 1020.9 |
| 20260831130333 | 80 | 292 | 1.7 | 5.2 | 0.00 | 0.00 | 0.00 | 91 | 1020.9 |
| 20260831125321 | 79 | 273 | 1.7 | 4.3 | 0.00 | 0.00 | 0.00 | 93 | 1020.9 |
| 20260831124319 | 78 | 302 | 2.6 | 3.5 | 0.00 | 0.00 | 0.00 | 94 | 1020.9 |
| 20260831123315 | 77 | 277 | 1.7 | 3.5 | 0.00 | 0.00 | 0.00 | 95 | 1021.0 |
| 20260831122319 | 77 | 325 | 2.6 | 3.5 | 0.00 | 0.00 | 0.00 | 96 | 1020.9 |
| 20260831121317 | 76 | 268 | 3.5 | 6.1 | 0.00 | 0.00 | 0.00 | 96 | 1020.9 |
| 20260831120314 | 76 | 278 | 2.6 | 3.5 | 0.00 | 0.00 | 0.00 | 96 | 1020.8 |
| 20260831115317 | 76 | 277 | 1.7 | 3.5 | 0.00 | 0.00 | 0.00 | 96 | 1020.8 |
| 20260831114313 | 75 | 270 | 1.7 | 5.2 | 0.00 | 0.00 | 0.00 | 96 | 1020.8 |
| 20260831113309 | 75 | 271 | 1.7 | 3.5 | 0.00 | 0.00 | 0.00 | 95 | 1020.8 |
| 20260831112312 | 75 | 310 | 1.7 | 4.3 | 0.00 | 0.00 | 0.00 | 95 | 1020.8 |
| 20260831111309 | 75 | 283 | 2.6 | 5.2 | 0.00 | 0.00 | 0.00 | 95 | 1020.9 |
| 20260831110334 | 75 | 283 | 2.6 | 5.2 | 0.00 | 0.00 | 0.00 | 95 | 1020.7 |
| 20260831105310 | 75 | 244 | 1.7 | 3.5 | 0.00 | 0.00 | 0.00 | 95 | 1020.6 |
| 20260831104326 | 75 | 246 | 2.6 | 3.5 | 0.00 | 0.00 | 0.00 | 95 | 1020.6 |
| 20260831103324 | 75 | 288 | 1.7 | 3.5 | 0.00 | 0.00 | 0.00 | 95 | 1020.5 |
| 20260831102318 | 74 | 317 | 0.9 | 1.7 | 0.00 | 0.00 | 0.00 | 95 | 1020.5 |
| 20260831101341 | 75 | 329 | 0.9 | 1.7 | 0.00 | 0.00 | 0.00 | 95 | 1020.4 |
| 20260831100316 | 75 | 124 | 0.0 | 2.6 | 0.00 | 0.00 | 0.00 | 94 | 1020.4 |
| 20260831095310 | 75 | 180 | 0.0 | 1.7 | 0.00 | 0.00 | 0.00 | 94 | 1020.4 |
| 20260831094319 | 75 | 248 | 0.0 | 1.7 | 0.00 | 0.00 | 0.00 | 95 | 1020.4 |
| 20260831093316 | 75 | 281 | 0.9 | 2.6 | 0.00 | 0.00 | 0.00 | 95 | 1020.4 |
| 20260831092321 | 75 | 267 | 0.9 | 2.6 | 0.00 | 0.00 | 0.00 | 95 | 1020.4 |
| 20260831091316 | 75 | 275 | 0.9 | 2.6 | 0.00 | 0.00 | 0.00 | 95 | 1020.4 |
| 20260831090311 | 75 | 279 | 0.9 | 1.7 | 0.00 | 0.00 | 0.00 | 95 | 1020.3 |
| 20260831085313 | 75 | 238 | 0.9 | 1.7 | 0.00 | 0.00 | 0.00 | 95 | 1020.4 |
| 20260831084308 | 75 | 278 | 0.9 | 1.7 | 0.00 | 0.00 | 0.00 | 95 | 1020.4 |
| 20260831083331 | 75 | 301 | 0.9 | 1.7 | 0.00 | 0.00 | 0.00 | 95 | 1020.6 |
| 20260831082328 | 75 | 301 | 0.9 | 1.7 | 0.00 | 0.00 | 0.00 | 95 | 1020.6 |
| 20260831081323 | 75 | 301 | 0.0 | 1.7 | 0.00 | 0.00 | 0.00 | 94 | 1020.7 |
| 20260831080326 | 75 | 302 | 0.9 | 1.7 | 0.00 | 0.00 | 0.00 | 94 | 1020.6 |
| 20260831075321 | 76 | 302 | 0.9 | 1.7 | 0.00 | 0.00 | 0.00 | 94 | 1020.5 |
| 20260831074345 | 76 | 213 | 0.9 | 1.7 | 0.00 | 0.00 | 0.00 | 94 | 1020.5 |
| 20260831073320 | 76 | 196 | 0.0 | 0.9 | 0.00 | 0.00 | 0.00 | 94 | 1020.5 |
| 20260831072316 | 76 | 211 | 0.0 | 1.7 | 0.00 | 0.00 | 0.00 | 94 | 1020.5 |
| 20260831071341 | 76 | 211 | 0.9 | 1.7 | 0.00 | 0.00 | 0.00 | 94 | 1020.5 |
| 20260831070324 | 76 | 211 | 0.9 | 1.7 | 0.00 | 0.00 | 0.00 | 94 | 1020.5 |
| 20260831065317 | 76 | 63 | 0.9 | 2.6 | 0.00 | 0.00 | 0.00 | 94 | 1020.6 |
| 20260831064311 | 76 | 318 | 0.9 | 1.7 | 0.00 | 0.00 | 0.00 | 94 | 1020.8 |
| 20260831063315 | 77 | 240 | 0.9 | 2.6 | 0.00 | 0.00 | 0.00 | 94 | 1020.7 |
| 20260831062309 | 77 | 210 | 1.7 | 3.5 | 0.00 | 0.00 | 0.00 | 94 | 1020.6 |
| 20260831061329 | 77 | 195 | 1.7 | 2.6 | 0.00 | 0.00 | 0.00 | 94 | 1020.8 |
| 20260831060323 | 76 | 235 | 1.7 | 3.5 | 0.00 | 0.00 | 0.00 | 94 | 1020.8 |
| 20260831055318 | 77 | 178 | 1.7 | 4.3 | 0.00 | 0.00 | 0.00 | 94 | 1021.0 |
| 20260831054318 | 77 | 141 | 2.6 | 5.2 | 0.00 | 0.00 | 0.00 | 94 | 1021.0 |
| 20260831053309 | 77 | 182 | 2.6 | 3.5 | 0.00 | 0.00 | 0.00 | 93 | 1021.1 |
| 20260831052333 | 77 | 175 | 1.7 | 4.3 | 0.00 | 0.00 | 0.00 | 93 | 1021.1 |
| 20260831051326 | 77 | 62 | 0.9 | 2.6 | 0.00 | 0.00 | 0.00 | 93 | 1021.2 |
| 20260831050329 | 77 | 92 | 0.9 | 2.6 | 0.00 | 0.00 | 0.00 | 92 | 1021.2 |
| 20260831045324 | 77 | 96 | 0.9 | 1.7 | 0.00 | 0.00 | 0.00 | 92 | 1021.2 |
| 20260831044318 | 77 | 180 | 1.7 | 4.3 | 0.00 | 0.00 | 0.00 | 92 | 1021.1 |
| 20260831043325 | 78 | 167 | 0.9 | 3.5 | 0.00 | 0.00 | 0.00 | 92 | 1021.2 |
| 20260831042317 | 78 | 180 | 1.7 | 2.6 | 0.00 | 0.00 | 0.00 | 92 | 1021.1 |
| 20260831041312 | 78 | 167 | 0.0 | 1.7 | 0.00 | 0.00 | 0.00 | 92 | 1021.2 |
| 20260831040312 | 78 | 146 | 1.7 | 4.3 | 0.00 | 0.00 | 0.00 | 91 | 1021.2 |
| 20260831035326 | 78 | 186 | 0.0 | 2.6 | 0.00 | 0.00 | 0.00 | 90 | 1021.2 |
| 20260831034328 | 78 | 267 | 0.0 | 0.9 | 0.00 | 0.00 | 0.00 | 90 | 1021.3 |
| 20260831033325 | 79 | 266 | 0.0 | 1.7 | 0.00 | 0.00 | 0.00 | 90 | 1021.1 |
| 20260831032323 | 79 | 258 | 0.9 | 1.7 | 0.00 | 0.00 | 0.00 | 90 | 1021.1 |
| 20260831031323 | 79 | 265 | 1.7 | 1.7 | 0.00 | 0.00 | 0.00 | 90 | 1021.1 |
| 20260831030319 | 79 | 254 | 0.0 | 1.7 | 0.00 | 0.00 | 0.00 | 90 | 1021.2 |
| 20260831025323 | 79 | 201 | 0.9 | 0.9 | 0.00 | 0.00 | 0.00 | 89 | 1021.1 |
| 20260831024318 | 79 | 201 | 0.0 | 0.9 | 0.00 | 0.00 | 0.00 | 89 | 1021.1 |
| 20260831023317 | 80 | 201 | 0.0 | 0.0 | 0.00 | 0.00 | 0.00 | 89 | 1021.1 |